JUPITER 3 (ECHOSTAR 24)

Last updated on Wed Sep 09 2026 00:03:03 GMT+0000 (Coordinated Universal Time)

1 57479U 23108A 26250.30231310 .00000000 00000+0 00000+0 0 9992 2 57479 0.0222 143.7457 0001154 15.3406 200.9184 1.00270649 11477
UTC large
Height (km)
Speed (km/s)
/
Latitude / Longitude
Inclination (degrees)
Orbital Period (minutes)
Azimuth
Elevation
Range (km)
Doppler Factor

Next 0 passes for location: London (51.5072 / 0.1276)

No passes found over London.
JUPITER 3 (ECHOSTAR 24)